DateTimeUTC,F1_A11,F1_S11,BsB_S11,BsG_S11,BsR_S11,BbsB_S11,BbsG_S11,BbsR_S11,BaB_A11,BaG_A11,BaR_A11,Tu_S11,T_S11,Uu_S11,U_S11,P_S11,T1_A11
2021-06-28T12:00:00Z,00000200,20000000,,,,,,,0000.00,0000.10,0000.52,18.7,25.3,09.1,06.1,0669.1,31.2
2021-06-28T12:01:00Z,00000200,20000000,,,,,,,0000.23,0000.19,-000.33,18.7,25.3,09.1,06.1,0669.1,31.1
2021-06-28T12:02:00Z,00000200,20000000,,,,,,,-000.01,-000.46,0000.21,18.7,25.3,09.1,06.1,0669.0,31.1
2021-06-28T12:03:00Z,00000200,60000000,,,,,,,-000.02,0000.27,-000.14,18.7,25.3,09.1,06.1,0669.1,31.1
2021-06-28T12:04:00Z,00000200,40000000,0000.71,0000.37,0000.20,0000.42,-000.10,-000.10,0000.06,0000.52,0000.36,18.8,25.2,09.5,06.5,0670.0,31.1
2021-06-28T12:05:00Z,00000200,00000000,0000.35,0000.41,0000.15,0000.41,-000.04,0000.04,0000.09,-000.59,-000.35,18.8,25.1,09.6,06.5,0670.0,31.2
2021-06-28T12:06:00Z,00000200,00000000,0001.20,0000.52,0000.01,0000.64,0000.33,-000.00,0000.50,0000.70,0000.32,18.8,25.1,09.6,06.5,0670.0,31.1
2021-06-28T12:07:00Z,00000200,00000000,0000.08,0000.25,0000.10,0000.53,-000.09,0000.50,-000.02,-000.16,-000.15,18.8,25.1,09.7,06.6,0670.0,31.1
2021-06-28T12:08:00Z,00000200,00000000,0000.86,0000.49,0000.10,0000.41,0000.02,0000.20,0000.18,0000.43,0000.54,18.8,25.1,09.7,06.6,0669.9,31.2
2021-06-28T12:09:00Z,00000200,00000000,0000.64,0000.45,0000.16,0000.53,0000.06,0000.27,-000.33,-000.06,-000.34,18.8,25.1,09.6,06.6,0669.9,31.2
2021-06-28T12:10:00Z,00000200,00000000,-000.19,0000.35,0000.12,0000.43,0000.04,0000.08,0000.26,-000.05,0000.24,18.8,25.1,09.8,06.7,0670.0,31.1
2021-06-28T12:11:00Z,00000200,00000000,0000.44,0000.25,0000.42,0000.20,0000.13,0000.32,-000.09,-000.35,0000.13,18.8,25.1,09.7,06.6,0669.9,31.1
2021-06-28T12:12:00Z,00000200,00000000,0000.32,0000.24,0000.21,0000.48,0000.16,0000.14,0000.24,0000.37,0000.10,18.8,25.1,09.7,06.6,0669.9,31.2
2021-06-28T12:13:00Z,00000200,00000000,0000.74,0000.72,0000.37,0000.20,-000.01,0000.07,0000.20,-000.00,0000.01,18.8,25.1,09.8,06.7,0669.9,31.1
2021-06-28T12:14:00Z,00000200,00000000,-000.08,0000.43,0000.07,0000.56,0000.08,0000.28,0000.13,0000.12,0000.06,18.8,25.1,09.9,06.7,0670.0,31.2
2021-06-28T12:15:00Z,00000200,00000000,0000.38,0000.41,0000.30,0000.11,0000.16,0000.05,0000.21,0000.19,0000.17,18.8,25.1,09.8,06.7,0669.9,31.2
2021-06-28T12:16:00Z,00000200,00000000,0000.45,0000.33,0000.43,0000.38,0000.10,0000.27,0000.27,0000.33,0000.09,18.8,25.1,09.7,06.6,0669.9,31.1
2021-06-28T12:17:00Z,00000200,00000000,0000.31,0000.22,0000.26,0000.43,0000.43,0000.00,0000.31,0000.25,0000.46,18.8,25.1,09.8,06.7,0670.0,31.1
2021-06-28T12:18:00Z,00000200,00000000,0000.58,0000.26,0000.39,0000.21,0000.02,0000.14,-000.01,-000.07,-000.27,18.9,25.1,09.9,06.8,0669.9,31.1
2021-06-28T12:19:00Z,00000200,00000000,0001.12,0000.15,0000.15,0000.27,0000.31,0000.45,0000.15,0000.21,0000.13,19.0,25.1,09.9,06.8,0669.9,31.1
2021-06-28T12:20:00Z,00000200,00000000,0000.62,0000.24,0000.60,0000.09,-000.00,0000.16,0000.10,-000.14,0000.06,19.0,25.2,09.8,06.8,0669.9,31.2
2021-06-28T12:21:00Z,00000200,00000000,0000.62,0000.13,0000.06,0000.03,-000.24,-000.01,0000.02,0000.45,0000.34,19.0,25.2,09.9,06.8,0669.9,31.2
2021-06-28T12:22:00Z,00000200,00000000,0000.23,0000.30,0000.14,0000.52,0000.17,0000.15,0000.16,0000.07,-000.23,19.1,25.2,09.9,06.8,0669.9,31.2
2021-06-28T12:23:00Z,00000200,00000000,0000.38,0000.26,-000.03,0000.39,0000.19,0000.20,0000.32,0000.05,0000.22,19.1,25.2,10.0,06.9,0670.0,31.2
2021-06-28T12:24:00Z,00000200,00000000,0000.23,0000.14,0000.10,0000.66,0000.16,0000.43,-000.11,0000.19,0000.20,19.1,25.2,10.1,06.9,0669.9,31.2
2021-06-28T12:25:00Z,00000200,00000000,0000.64,0000.40,0000.42,0000.51,0000.11,0000.26,-000.07,-000.14,-000.17,19.0,25.2,10.0,06.9,0669.9,31.2
2021-06-28T12:26:00Z,00000200,00000000,0000.50,0000.57,0000.30,0000.71,0000.14,0000.29,0000.15,0000.14,0000.06,19.1,25.2,10.2,07.0,0669.9,31.2
2021-06-28T12:27:00Z,00000200,00000000,0000.55,0000.37,-000.05,0000.48,-000.12,0000.20,0000.29,0000.26,0000.68,19.1,25.2,10.1,06.9,0669.9,31.2
2021-06-28T12:28:00Z,00000200,00000000,0000.73,-000.01,0000.40,0000.27,-000.16,0000.04,0000.17,0000.19,-000.52,19.1,25.2,10.2,07.0,0670.0,31.2
2021-06-28T12:29:00Z,00000200,00000000,0000.12,0000.23,0000.15,0000.63,-000.06,0000.15,-000.37,-000.22,0000.05,19.1,25.2,10.3,07.1,0669.9,31.2
2021-06-28T12:30:00Z,00000200,00000000,0000.64,0000.21,0000.32,0000.84,0000.19,0000.27,0000.15,0000.20,0000.30,19.1,25.2,10.2,07.0,0669.9,31.2
2021-06-28T12:31:00Z,00000200,00000000,0000.51,0000.42,0000.07,0000.92,0000.11,0000.11,0000.39,-000.04,-000.20,19.1,25.2,10.2,07.0,0670.0,31.2
2021-06-28T12:32:00Z,00000200,00000000,0000.25,0000.18,0000.21,0000.92,0000.27,0000.24,-000.04,0000.38,0000.21,19.1,25.2,10.2,07.0,0669.8,31.2
2021-06-28T12:33:00Z,00000200,00000000,0000.72,0000.39,0000.12,0000.20,0000.20,-000.18,0000.03,-000.38,0000.02,19.1,25.2,10.2,07.0,0670.0,31.2
2021-06-28T12:34:00Z,00000200,00000000,0000.09,0000.47,0000.05,0000.04,-000.01,0000.11,0000.39,0000.30,0000.17,19.1,25.2,10.4,07.1,0669.9,31.2
2021-06-28T12:35:00Z,00000200,00000000,0000.64,0000.56,0000.11,0000.38,-000.02,-000.05,-000.07,0000.24,0000.01,19.1,25.2,10.2,07.0,0669.9,31.2
2021-06-28T12:36:00Z,00000200,00000000,0000.18,0000.38,0000.19,0000.37,0000.03,0000.34,-000.20,-000.11,0000.22,19.1,25.2,10.2,07.0,0669.9,31.2
2021-06-28T12:37:00Z,00000200,00000000,0000.62,-000.40,0000.48,0000.50,0000.10,0000.15,0000.25,0000.01,0000.08,19.1,25.2,10.3,07.1,0670.0,31.2
2021-06-28T12:38:00Z,00000200,00000000,0000.09,0000.33,0000.10,0000.09,-000.40,0000.32,-000.02,0000.08,-000.20,19.1,25.2,10.3,07.1,0669.9,31.2
2021-06-28T12:39:00Z,00000200,00000000,0000.12,0000.13,0000.41,0000.55,0000.12,-000.07,0000.11,0000.08,0000.10,19.1,25.2,10.3,07.0,0669.9,31.2
2021-06-28T12:40:00Z,00000200,00000000,0001.11,0000.49,0000.13,0000.97,-000.03,0000.14,0000.27,-000.06,0000.02,19.1,25.2,10.2,07.0,0669.9,31.2
2021-06-28T12:41:00Z,00000200,00000000,0000.54,0000.06,0000.39,0000.72,0000.10,0000.27,-000.07,0000.27,-000.18,19.1,25.2,10.3,07.1,0669.9,31.2
2021-06-28T12:42:00Z,00000200,00000000,-000.21,0000.24,0000.24,0000.37,-000.12,0000.18,0000.12,-000.11,0000.38,19.1,25.2,10.3,07.1,0669.9,31.2
2021-06-28T12:43:00Z,00000200,00000000,0000.80,0000.27,0000.30,0000.32,0000.15,0000.22,-000.07,0000.07,0000.10,19.1,25.2,10.3,07.1,0669.8,31.2
2021-06-28T12:44:00Z,00000200,00000000,0000.68,0000.23,0000.27,0000.36,0000.17,0000.26,0000.49,0000.10,-000.18,19.1,25.2,10.4,07.1,0669.9,31.2
2021-06-28T12:45:00Z,00000200,00000000,0000.70,0000.52,0000.06,0000.66,0000.05,0000.26,-000.18,0000.19,0000.39,19.1,25.2,10.2,07.0,0669.9,31.2
2021-06-28T12:46:00Z,00000200,00000000,0000.04,0000.15,0000.27,0000.02,-000.05,-000.05,0000.09,0000.08,-000.10,19.1,25.2,10.3,07.1,0669.8,31.2
2021-06-28T12:47:00Z,00000200,00000000,0000.52,0000.41,0000.09,0000.36,-000.15,0000.21,0000.01,-000.19,0000.11,19.0,25.2,10.3,07.1,0669.8,31.2
2021-06-28T12:48:00Z,00000200,00000000,0000.85,0000.14,0000.04,0000.41,0000.01,0000.10,0000.25,0000.35,0000.12,19.0,25.2,10.4,07.2,0669.9,31.2
2021-06-28T12:49:00Z,00000200,00000000,0000.68,0000.21,-000.11,0000.43,-000.13,0000.23,0000.27,0000.20,-000.03,19.1,25.2,10.5,07.2,0669.9,31.2
2021-06-28T12:50:00Z,00000200,00000000,0000.63,0000.07,0000.29,0001.14,0000.08,0000.11,-000.04,0000.03,0000.19,19.1,25.3,10.5,07.2,0669.9,31.2
2021-06-28T12:51:00Z,00000200,00000000,0000.43,0000.31,0000.38,0000.53,0000.12,0000.05,-000.10,0000.09,-000.06,19.1,25.3,10.5,07.2,0669.8,31.2
2021-06-28T12:52:00Z,00000200,00000000,0001.11,0000.58,0000.27,0000.22,-000.06,0000.15,0000.11,0000.00,0000.08,19.1,25.3,10.5,07.2,0669.8,31.2
2021-06-28T12:53:00Z,00000200,00000000,0000.29,0000.08,0000.57,0000.63,0000.04,0000.23,0000.02,-000.10,-000.20,19.1,25.3,10.5,07.2,0669.7,31.2
2021-06-28T12:54:00Z,00000200,00000000,0000.53,0000.46,0000.22,0000.12,0000.16,0000.20,0000.44,0000.63,0000.56,19.1,25.3,10.4,07.2,0669.8,31.2
2021-06-28T12:55:00Z,00000200,00000000,0000.46,0000.39,0000.06,0000.92,-000.25,0000.04,-000.35,-000.10,0000.04,19.1,25.3,10.5,07.2,0669.9,31.2
2021-06-28T12:56:00Z,00000200,00000000,0000.19,0000.41,0000.62,0000.50,0000.28,-000.03,0000.35,-000.00,-000.16,19.1,25.3,10.4,07.2,0669.8,31.2
2021-06-28T12:57:00Z,00000200,40000000,,,,,,,0000.02,-000.13,0000.05,19.1,25.3,10.2,07.0,0669.9,31.2
2021-06-28T12:58:00Z,00000200,60000000,,,,,,,0000.10,0000.17,0000.18,18.9,25.4,10.4,07.0,0668.9,31.2
2021-06-28T12:59:00Z,00000200,20000000,,,,,,,0000.05,-000.05,-000.34,18.9,25.5,10.5,07.0,0668.8,31.2
